GMMNGMME

Guest
Details From GMMN - Casablanca Mohammed V Intl
To GMME - SALE
Flight Number -
Tags generated
Created
Modified
Stats Distance 59 nm / 109 km
Max Altitude 0 ft / 0 m
Waypoints 3
Social Downloads 0
Likes 0
Share VATSIM

Download

Looking for another format? Having issues loading an existing format? Contact us
Advertisement - Login to hide

Notes

Basic altitude profile: - Ascent Rate: 2500ft/min - Ascent Speed: 250kts - Cruise Altitude: 35000ft - Cruise Speed: 420kts - Descent Rate: 1500ft/min - Descent Speed: 250kts Options: - Use NATs: yes - Use PACOTS: yes - Use low airways: yes - Use high airways: yes

Route

GMMN RBT GMME

ID Type Via Altitude Latitude Longitude Leg Dist Tot Dist Heading (true) Name
O GMMN APT - 0 ft / 0 m 33.36747˚ -7.58996˚ - 0 nm - Casablanca Mohammed V Intl
RBT VOR - 0 ft / 0 m 34.05000˚ -6.74639˚ 58 nm 58 nm 46° / 46° RABAT VOR-DME
O GMME APT - 0 ft / 0 m 34.05147˚ -6.75152˚ 0 nm 59 nm 289° / 289° SALE

Altitude Profile

Advertisement - Login to hide

GMMN

Details ICAO GMMN (CMN)
Name Casablanca Mohammed V Intl
Region Morocco
Timezone Africa/Casablanca (UTC+0.0)
Stats Elevation 656 ft / 200 m (AMSL)
Location 33.367466° -7.589964°
Runways 2
Magnetic Variation 1.818° W

METAR

GMMN 121030Z 07004KT 030V100 9999 BKN020 13/10 Q1018 NOSIG

Decode

TAF

TAF GMMN 120500Z 1206/1312 20006KT BKN026TCU TEMPO 1206/1212 4000 RA SCT010 BKN026 FEW030CB BECMG 1212/1215 02013KT SCT016 BECMG 1221/1223 32006KT

Decode

Departure Runways

ID Width Length Bearing (true) Bearing (mag) Surface Threshold Offset Overrun Length
17L 148 ft / 45 m 12,224 ft / 3,726 m 164.03° 165.85° Asphalt 0 ft / 0 m 295 ft / 90 m
17R 148 ft / 45 m 12,196 ft / 3,717 m 164.03° 165.85° Asphalt 0 ft / 0 m 197 ft / 60 m
35L 148 ft / 45 m 12,196 ft / 3,717 m 344.04° 345.86° Asphalt 0 ft / 0 m 180 ft / 55 m
35R 148 ft / 45 m 12,224 ft / 3,726 m 344.04° 345.86° Asphalt 0 ft / 0 m 995 ft / 303 m

GMME

Details ICAO GMME (RBA)
Name SALE
Region Morocco
Timezone Africa/Casablanca (UTC+0.0)
Stats Elevation 276 ft / 84 m (AMSL)
Location 34.051468° -6.751519°
Runways 1
Magnetic Variation 1.551° W

METAR

GMME 121000Z 00000KT 5000 SCT013 SCT020 12/10 Q1017 PROB40 TEMPO 4000 SHRA

Decode

TAF

TAF GMME 120500Z 1206/1312 18010KT 4000 TSSHRA SCT010 BKN016 SCT022CB OVC100 BECMG 1210/1214 08008KT 8000 SCT016

Decode

Destination Runways

ID Width Length Bearing (true) Bearing (mag) Surface Threshold Offset Overrun Length
04 148 ft / 45 m 11,503 ft / 3,506 m 31.24° 32.79° Asphalt 0 ft / 0 m 197 ft / 60 m
22 148 ft / 45 m 11,503 ft / 3,506 m 211.25° 212.80° Asphalt 0 ft / 0 m 197 ft / 60 m

Approach Navaids

Runway Type Ident Frequency Range Bearing (true) Bearing (mag) Slope Elevation
22 Localiser RS 110.90 MHz 18 nm / 33 km 211.23° 212.78° - 250 ft / 76 m (AMSL)
22 Glidescope RS 110.90 MHz 10 nm / 19 km 211.24° 212.79° 3.00° 246 ft / 75 m (AMSL)
22 DME RS 110.90 MHz 18 nm / 33 km - - - 39 ft / 12 m (AMSL)

Popular Alternatives